Showing default

S80/T, 22078

Orbit data source: Space-Track

S80/T, 22078 is a payload satellite owned by CNES (FR) in LEO that was launched on Mon, 10 Aug 1992 UTC via an ARIANE 42P launch vehicle from the French Guiana (FRGUI). Payloads include a variety of satellites, spacecraft, and rockets equipped with specific instruments for various scientific and technological missions. These include communications satellites like Starlink; space stations such as the ISS; scientific satellites like the Hubble; Earth observation satellites from companies like Planet Labs, Umbra, and HawkEye 360; GPS; miniature CubeSats for education and research; and military/defense satellites.

Loading next visibility...
S80/T details
Identifier
22078, 1992-052C
Orbit
LEO
Last TLE update1 day ago
Origin
Flag of FRCNES (FR)
ManufacturerSSTL/MMST
MissionCivil Communications
Bus & MotorUOSAT, Unknown motor
Mass50 kg wet, 50 kg dry
Launch date (UTC)
1992-08-10 (32 years ago)
Launch vehicle
ARIANE 42P
Launch site
French Guiana (FRGUI)
Object type
Payload
Rocket body
Debris
Shape & HBRHex Poly, 0.7 m
Radar Cross Section0.140 m², Medium (>0.1 m² and < 1m²)

Expand to show TLE details & history

TLE from 1 day ago
0 S80/T
1 22078U 92052C   24360.28414578 -.00000032  00000-0  12065-3 0  9994
2 22078  66.0861 317.9099 0012024 219.2477 140.7671 12.86835378520898
Epoch: 2024-12-25T06:49Z
Definitive object data (Epoch: 2024-12-25T06:49:10.195Z)
Latitude-0.00001°
Longitude121.33731°
Altitude1,323.198 km
Speed7.193 km/s
True Right ascension21h 11m 38s
True Declination0° 00' 00"
Sunlit
Object was in daylight at TLE epoch
Visualization TLE readout
Latitude-8.18664°
Longitude115.25964°
Altitude1,323.702 km
Speed7.192 km/s
Apparent Right ascension21h 18m 09s
Apparent Declination-22° 41' 20"
Sunlit
Object is in daylight
Visualization observer readout
Local Sidereal Time10:06:20
Azimuth34.218° NE
Elevation-69.977°
Doppler factor1
Orbital elements
Apogee altitude1,321.91 km
Perigee altitude1,303.415 km
Semi-major axis7,690.8 km
Eccentricity0.0012024
Inclination66.0861°
RAAN317.9099°
Arg. of periapsis219.2477°
True anomaly140.85414°
Mean anomaly140.7671°
Eccentric anomaly140.81063°
Mean motion3.218 °/min
BSTAR0.00012065
Orbital period111.87 mins
Loading maneuver chart data...
Loading historical data...
Loading historical data...
Loading historical data...
Loading historical data...
Loading historical data...
Loading historical data...
Loading historical data...

S80/T Visibility forecast

Observer location: undefined°, undefined

Span
Click to sort rows by Start time (UTC) header in descending order
Start Az.
Max El. time (UTC)
Max El. Az.
Max El.
End time (UTC)
End Az.
14 mins2024-12-26 22:05:05.959Z179.671° S2024-12-26 22:12:05.959Z108.009° ESE36.468°2024-12-26 22:19:05.959Z41.791° NE
13 mins2024-12-27 00:01:05.959Z246.099° WSW2024-12-27 00:07:05.959Z305.148° NW33.472°2024-12-27 00:14:05.959Z16.856° NNE
5 mins2024-12-27 02:03:05.959Z319.112° NNW2024-12-27 02:05:05.959Z334.557° NNW12.863°2024-12-27 02:08:05.959Z357.662° N
10 mins2024-12-27 06:00:05.959Z358.096° N2024-12-27 06:04:05.959Z34.175° NE21.937°2024-12-27 06:10:05.959Z86.462° E
14 mins2024-12-27 07:54:05.959Z330.306° NNW2024-12-27 08:01:05.959Z102.897° ESE44.976°2024-12-27 08:08:05.959Z151.106° SSE
8 mins2024-12-27 09:52:05.959Z285.833° WNW2024-12-27 09:55:05.959Z260.469° W17.111°2024-12-27 10:00:05.959Z220.696° SW
|